ROMMA est une association bénévole à but non lucratif. Votre soutien est indispensable : ADHERER à ROMMA ou FAIRE un DON

Val-d'Arly - (73, Savoie)

Beaufortain (2050 m)   Longitude: 06° 35' 21" E   Latitude: 45° 46' 53" N Station romma n°118
 

Détail journalier du     <<     >>

Température Humidité Vent Dir Rafale Dir. rafale Ensol.
Heure (°C) (%) (km/h) (km/h) (min)
01:00 5.82310E19E0
02:00 4.7259E16E0
03:00 4.8255E15SE0
04:00 4.62716ESE21ESE0
05:00 4.03216ESE21ESE0
06:00 4.32819SE26ESE0
07:00 4.22517ESE23ESE0
08:00 5.22416SE21ESE60
09:00 5.32315ESE24ESE60
10:00 5.4239ENE19ESE60
11:00 5.02710E18ESE60
12:00 6.6297E16E60
13:00 6.9314SSO11OSO60
14:00 7.1324ONO11ONO60
15:00 8.1303NE11OSO60
16:00 7.7343NE8NE60
17:00 7.2406NE11NNE60
18:00 6.8425NE15NNE60
19:00 5.4464ENE8ENE0
20:00 5.3465E10ESE0
21:00 5.5456S11SE0
22:00 4.94403S0
23:00 4.94603S0
minuit 5.4433ENE8SSE0

Graphique du 23-03-2019

 

Serveur OMMA